Location: Newark
(43.4306°N, 0.3089°E)
Time: 10:11:54
(UTC+00:00)

Vanguard 3 - Pass Details

Date: 01 September 2019
Orbit: 508 x 3263 km, 33.4° (Epoch: 14 September)

Event Time Altitude Azimuth Distance (km) Brightness Sun altitude
Rises 12:43:32 0° 224° (SW) 7,095 12.4 53.5°
Reaches altitude 10° 12:49:15 10° 217° (SW) 5,850 12.3 53.1°
Maximum altitude 13:03:33 35° 160° (SSE) 3,244 11.2 52.1°
Drops below altitude 10° 13:12:58 10° 100° (E) 3,863 10.6 51.3°
Sets 13:15:52 0° 91° (E) 4,509 10.8 51.0°
